Terminal Aerodrome Forecast
Issued by NWS

Home | Current Version | Previous Version | Text Only | Print | Product List | Glossary On
Versions: 1 2 3 4 5 6 7 8 9 10 11 12 13 14
000
FTAK31 PAJN 281100
TAFAGY
TAF
PAGY 281135Z 2812/2912 04005KT P6SM VCSH SCT050 BKN070 OVC090
     FM281500 04011KT P6SM -RA SCT025 BKN050
     FM281800 04005KT P6SM -RA BKN050 OVC100
     FM282100 21010G20KT P6SM -SHRA BKN025 OVC050
     FM290100 21020G30KT 6SM -SHRA BR BKN020 OVC040
     FM290300 21025G33KT 6SM -SHRA BR OVC025
     FM290900 21018G28KT P6SM -SHRA SCT025 BKN040 OVC060
      AMD LTD TO CLD VIS AND WIND=

USA.gov is the U.S. government's official web portal to all federal, state and local government web resources and services.